Satellite: OKEAN-4 Catalog number: 23317 Epoch time: 14100.17930336 Element set: 501 Inclination: 082.5362 deg RA of node: 131.6899 deg Eccentricity: 0.0019321 Arg of perigee: 327.5194 deg Mean anomaly: 083.2691 deg Mean motion: 14.85351938 rev/day Decay rate: 1.562e-05 rev/day^2 Epoch rev: 5301 Checksum: 282
Satellite: NOAA-14 Catalog number: 23455 Epoch time: 14100.43366209 Element set: 713 Inclination: 098.7792 deg RA of node: 185.0683 deg Eccentricity: 0.0008949 Arg of perigee: 227.0428 deg Mean anomaly: 244.2883 deg Mean motion: 14.13963047 rev/day Decay rate: 1.10e-06 rev/day^2 Epoch rev: 99437 Checksum: 315
Satellite: NOAA-15 Catalog number: 25338 Epoch time: 14100.46503762 Element set: 143 Inclination: 098.7497 deg RA of node: 094.4673 deg Eccentricity: 0.0010079 Arg of perigee: 351.3545 deg Mean anomaly: 161.9437 deg Mean motion: 14.25392434 rev/day Decay rate: 2.54e-06 rev/day^2 Epoch rev: 82719 Checksum: 310
Satellite: RESURS Catalog number: 25394 Epoch time: 14099.80430821 Element set: 628 Inclination: 098.4059 deg RA of node: 067.0810 deg Eccentricity: 0.0002633 Arg of perigee: 102.3092 deg Mean anomaly: 316.3590 deg Mean motion: 14.24386848 rev/day Decay rate: 5.8e-07 rev/day^2 Epoch rev: 81858 Checksum: 304
Satellite: FENGYUN1 Catalog number: 25730 Epoch time: 14099.87409443 Element set: 121 Inclination: 098.9073 deg RA of node: 061.4124 deg Eccentricity: 0.0025840 Arg of perigee: 306.5394 deg Mean anomaly: 106.6939 deg Mean motion: 14.11755361 rev/day Decay rate: 1.790e-05 rev/day^2 Epoch rev: 76788 Checksum: 316
Satellite: OKEAN-0 Catalog number: 25860 Epoch time: 14100.49205985 Element set: 219 Inclination: 098.0361 deg RA of node: 064.7915 deg Eccentricity: 0.0000952 Arg of perigee: 107.2237 deg Mean anomaly: 004.5634 deg Mean motion: 14.75157863 rev/day Decay rate: 1.097e-05 rev/day^2 Epoch rev: 79217 Checksum: 299
Satellite: NOAA-16 Catalog number: 26536 Epoch time: 14100.41330595 Element set: 633 Inclination: 098.9967 deg RA of node: 160.4596 deg Eccentricity: 0.0010471 Arg of perigee: 023.1591 deg Mean anomaly: 104.7342 deg Mean motion: 14.13021437 rev/day Decay rate: 1.00e-06 rev/day^2 Epoch rev: 69854 Checksum: 280
Satellite: NOAA-17 Catalog number: 27453 Epoch time: 14100.51469073 Element set: 539 Inclination: 098.3130 deg RA of node: 103.7942 deg Eccentricity: 0.0011710 Arg of perigee: 019.7944 deg Mean anomaly: 091.2809 deg Mean motion: 14.24728034 rev/day Decay rate: 2.39e-06 rev/day^2 Epoch rev: 61305 Checksum: 284
Satellite: NOAA-18 Catalog number: 28654 Epoch time: 14100.50960325 Element set: 26 Inclination: 099.1426 deg RA of node: 078.6729 deg Eccentricity: 0.0015428 Arg of perigee: 094.6598 deg Mean anomaly: 011.7263 deg Mean motion: 14.11989402 rev/day Decay rate: 2.90e-06 rev/day^2 Epoch rev: 45801 Checksum: 307
Satellite: NOAA-19 Catalog number: 33591 Epoch time: 14100.45842275 Element set: 191 Inclination: 098.9399 deg RA of node: 045.7187 deg Eccentricity: 0.0013183 Arg of perigee: 313.8073 deg Mean anomaly: 179.4613 deg Mean motion: 14.11687740 rev/day Decay rate: 2.03e-06 rev/day^2 Epoch rev: 26643 Checksum: 311
/EX SB KEPS @ AMSAT $ORB14100.M Orbital Elements 14100.MISC
HR AMSAT ORBITAL ELEMENTS FOR MANNED AND MISCELLANEOUS SATELLITES FROM WA5QGD FORT WORTH,TX April 10, 2014 BID: ORB14100.M TO ALL RADIO AMATEURS BT
Satellite: HUBBLE Catalog number: 20580 Epoch time: 14099.51331999 Element set: 477 Inclination: 028.4696 deg RA of node: 128.4977 deg Eccentricity: 0.0002871 Arg of perigee: 270.1436 deg Mean anomaly: 215.0241 deg Mean motion: 15.05131548 rev/day Decay rate: 3.375e-05 rev/day^2 Epoch rev: 11436 Checksum: 299
Satellite: ISS Catalog number: 25544 Epoch time: 14100.80411512 Element set: 54 Inclination: 051.6493 deg RA of node: 073.5010 deg Eccentricity: 0.0002261 Arg of perigee: 012.2910 deg Mean anomaly: 058.1808 deg Mean motion: 15.50689026 rev/day Decay rate: 1.6600e-04 rev/day^2 Epoch rev: 88087 Checksum: 250
Satellite: CO-58 Catalog number: 28895 Epoch time: 14100.37827051 Element set: 738 Inclination: 097.8407 deg RA of node: 305.7513 deg Eccentricity: 0.0016733 Arg of perigee: 220.8415 deg Mean anomaly: 139.1534 deg Mean motion: 14.61756743 rev/day Decay rate: 1.139e-05 rev/day^2 Epoch rev: 45034 Checksum: 312
Satellite: FALCON Catalog number: 30776 Epoch time: 14100.19656972 Element set: 840 Inclination: 035.4291 deg RA of node: 174.4154 deg Eccentricity: 0.0000597 Arg of perigee: 095.1547 deg Mean anomaly: 290.8042 deg Mean motion: 15.15211375 rev/day Decay rate: 1.0718e-04 rev/day^2 Epoch rev: 39041 Checksum: 285
Satellite: MAST Catalog number: 31126 Epoch time: 14099.52459280 Element set: 16 Inclination: 097.9090 deg RA of node: 084.0248 deg Eccentricity: 0.0091915 Arg of perigee: 207.5954 deg Mean anomaly: 270.9981 deg Mean motion: 14.55165578 rev/day Decay rate: 7.22e-06 rev/day^2 Epoch rev: 37040 Checksum: 312
Satellite: CAPE1 Catalog number: 31130 Epoch time: 14100.44431405 Element set: 23 Inclination: 097.9298 deg RA of node: 081.4684 deg Eccentricity: 0.0098417 Arg of perigee: 222.4534 deg Mean anomaly: 136.9022 deg Mean motion: 14.54297491 rev/day Decay rate: 9.63e-06 rev/day^2 Epoch rev: 36996 Checksum: 300
Satellite: COMPASS Catalog number: 32787 Epoch time: 14100.77416626 Element set: 899 Inclination: 097.7098 deg RA of node: 156.2241 deg Eccentricity: 0.0014739 Arg of perigee: 049.5007 deg Mean anomaly: 310.7492 deg Mean motion: 14.87472118 rev/day Decay rate: 3.583e-05 rev/day^2 Epoch rev: 32216 Checksum: 318
Satellite: AAUSAT2 Catalog number: 32788 Epoch time: 14100.13725793 Element set: 885 Inclination: 097.7105 deg RA of node: 156.5129 deg Eccentricity: 0.0014172 Arg of perigee: 050.3003 deg Mean anomaly: 309.9461 deg Mean motion: 14.88128451 rev/day Decay rate: 4.640e-05 rev/day^2 Epoch rev: 32212 Checksum: 284
Satellite: DO-64 Catalog number: 32789 Epoch time: 14100.47167346 Element set: 922 Inclination: 097.7284 deg RA of node: 162.7102 deg Eccentricity: 0.0012562 Arg of perigee: 039.2365 deg Mean anomaly: 089.4507 deg Mean motion: 14.92468096 rev/day Decay rate: 9.478e-05 rev/day^2 Epoch rev: 32239 Checksum: 334
Satellite: CO-66 Catalog number: 32791 Epoch time: 14100.13297833 Element set: 880 Inclination: 097.7090 deg RA of node: 154.5038 deg Eccentricity: 0.0015450 Arg of perigee: 054.0026 deg Mean anomaly: 306.2620 deg Mean motion: 14.86215914 rev/day Decay rate: 3.458e-05 rev/day^2 Epoch rev: 32194 Checksum: 290
Satellite: RS-30 Catalog number: 32953 Epoch time: 14100.78275491 Element set: 818 Inclination: 082.5014 deg RA of node: 243.1143 deg Eccentricity: 0.0018027 Arg of perigee: 303.9845 deg Mean anomaly: 055.9523 deg Mean motion: 12.43045025 rev/day Decay rate: 1.0e-07 rev/day^2 Epoch rev: 26688 Checksum: 276
Satellite: METEOR-M Catalog number: 35865 Epoch time: 14100.74318615 Element set: 427 Inclination: 098.5574 deg RA of node: 150.1762 deg Eccentricity: 0.0002013 Arg of perigee: 314.1571 deg Mean anomaly: 045.9443 deg Mean motion: 14.21916752 rev/day Decay rate: 1.3e-07 rev/day^2 Epoch rev: 23675 Checksum: 274
Satellite: RS-38 Catalog number: 35869 Epoch time: 14100.74390887 Element set: 360 Inclination: 098.5502 deg RA of node: 149.9997 deg Eccentricity: 0.0003468 Arg of perigee: 291.6422 deg Mean anomaly: 179.5343 deg Mean motion: 14.22197858 rev/day Decay rate: 7.9e-07 rev/day^2 Epoch rev: 23678 Checksum: 359
Satellite: JUGNU Catalog number: 37839 Epoch time: 14096.89170358 Element set: 595 Inclination: 019.9620 deg RA of node: 327.0344 deg Eccentricity: 0.0019022 Arg of perigee: 279.1458 deg Mean anomaly: 186.4846 deg Mean motion: 14.12284567 rev/day Decay rate: 5.58e-06 rev/day^2 Epoch rev: 12846 Checksum: 335
Satellite: SRMSAT Catalog number: 37841 Epoch time: 14100.82127832 Element set: 600 Inclination: 019.9722 deg RA of node: 321.1898 deg Eccentricity: 0.0011837 Arg of perigee: 264.2850 deg Mean anomaly: 198.8933 deg Mean motion: 14.10333035 rev/day Decay rate: 4.80e-06 rev/day^2 Epoch rev: 12883 Checksum: 284
Satellite: RAX-2 Catalog number: 37853 Epoch time: 14100.49563045 Element set: 773 Inclination: 101.7166 deg RA of node: 097.9050 deg Eccentricity: 0.0218907 Arg of perigee: 252.3518 deg Mean anomaly: 262.8423 deg Mean motion: 14.88548290 rev/day Decay rate: 7.017e-05 rev/day^2 Epoch rev: 13258 Checksum: 311
Satellite: AUBIESAT Catalog number: 37854 Epoch time: 14099.59362895 Element set: 754 Inclination: 101.7203 deg RA of node: 098.1997 deg Eccentricity: 0.0217355 Arg of perigee: 252.5062 deg Mean anomaly: 228.0485 deg Mean motion: 14.89764082 rev/day Decay rate: 6.669e-05 rev/day^2 Epoch rev: 13249 Checksum: 347
Satellite: HRBE Catalog number: 37855 Epoch time: 14099.94233868 Element set: 761 Inclination: 101.7208 deg RA of node: 098.1796 deg Eccentricity: 0.0219127 Arg of perigee: 252.5329 deg Mean anomaly: 159.7664 deg Mean motion: 14.89133094 rev/day Decay rate: 7.323e-05 rev/day^2 Epoch rev: 13252 Checksum: 333
Satellite: RS-39 Catalog number: 38051 Epoch time: 14100.84325529 Element set: 435 Inclination: 051.6294 deg RA of node: 199.8189 deg Eccentricity: 0.0010014 Arg of perigee: 303.8267 deg Mean anomaly: 145.0094 deg Mean motion: 15.51725351 rev/day Decay rate: 6.5915e-04 rev/day^2 Epoch rev: 12362 Checksum: 298
Satellite: E-STAR Catalog number: 38079 Epoch time: 14100.63783065 Element set: 812 Inclination: 069.4575 deg RA of node: 167.8694 deg Eccentricity: 0.0424776 Arg of perigee: 091.9650 deg Mean anomaly: 007.5958 deg Mean motion: 14.93555089 rev/day Decay rate: 9.2436e-04 rev/day^2 Epoch rev: 11332 Checksum: 344
